TimeAKDT,TemperatureF,Dew PointF,Humidity,Sea Level PressureIn,VisibilityMPH,Wind Direction,Wind SpeedMPH,Gust SpeedMPH,PrecipitationIn,Events,Conditions,WindDirDegrees,DateUTC
12:53 AM,28.9,5.0,36,29.60,10.0,North,8.1,-,N/A,,Mostly Cloudy,360,2012-10-31 08:53:00
1:53 AM,28.9,5.0,36,29.59,10.0,NNE,12.7,19.6,N/A,,Overcast,20,2012-10-31 09:53:00
2:53 AM,28.0,5.0,38,29.58,10.0,NNE,15.0,-,N/A,,Overcast,20,2012-10-31 10:53:00
3:53 AM,27.0,5.0,39,29.57,10.0,North,12.7,-,N/A,,Mostly Cloudy,10,2012-10-31 11:53:00
4:53 AM,27.0,5.0,39,29.56,10.0,NNE,8.1,-,N/A,,Scattered Clouds,30,2012-10-31 12:53:00
5:53 AM,26.1,5.0,41,29.55,9.0,NE,10.4,23.0,0.00,Snow,Light Snow,40,2012-10-31 13:53:00
6:53 AM,26.1,5.0,41,29.55,10.0,NE,10.4,-,0.00,,Partly Cloudy,40,2012-10-31 14:53:00
7:53 AM,25.0,5.0,43,29.55,10.0,NNE,9.2,-,N/A,,Clear,20,2012-10-31 15:53:00
8:53 AM,26.1,6.1,43,29.55,9.0,NE,11.5,21.9,0.00,Snow,Light Snow,40,2012-10-31 16:53:00
9:53 AM,26.1,7.0,44,29.54,10.0,NNE,5.8,-,0.00,,Overcast,20,2012-10-31 17:53:00
10:53 AM,27.0,8.1,45,29.54,10.0,NE,6.9,-,N/A,,Overcast,50,2012-10-31 18:53:00
11:53 AM,27.0,7.0,43,29.54,10.0,NE,12.7,-,N/A,,Mostly Cloudy,40,2012-10-31 19:53:00
12:53 PM,30.0,8.1,40,29.54,10.0,NE,10.4,-,N/A,,Scattered Clouds,50,2012-10-31 20:53:00
1:53 PM,30.0,8.1,40,29.53,10.0,NE,13.8,19.6,N/A,,Scattered Clouds,50,2012-10-31 21:53:00
2:53 PM,30.0,7.0,38,29.54,10.0,NE,11.5,-,N/A,,Scattered Clouds,40,2012-10-31 22:53:00
3:53 PM,30.0,8.1,40,29.53,10.0,NE,10.4,18.4,N/A,,Clear,50,2012-10-31 23:53:00
4:53 PM,30.0,7.0,38,29.53,10.0,NNE,16.1,20.7,N/A,,Partly Cloudy,30,2012-11-01 00:53:00
5:53 PM,28.0,8.1,43,29.54,10.0,NE,9.2,-,N/A,,Overcast,50,2012-11-01 01:53:00
6:53 PM,28.0,10.0,47,29.55,8.0,NE,15.0,21.9,N/A,,Overcast,40,2012-11-01 02:53:00
7:53 PM,27.0,16.0,63,29.57,9.0,ENE,10.4,-,0.00,,Overcast,70,2012-11-01 03:53:00
8:53 PM,27.0,12.9,56,29.56,10.0,NE,5.8,-,0.00,,Overcast,40,2012-11-01 04:53:00
9:53 PM,27.0,12.0,53,29.57,10.0,NE,11.5,-,N/A,,Overcast,50,2012-11-01 05:53:00
10:26 PM,24.8,17.6,74,29.58,2.5,ENE,8.1,-,0.00,Snow,Light Snow,70,2012-11-01 06:26:00
10:47 PM,24.8,19.4,80,29.58,4.0,NE,5.8,-,0.01,Snow,Light Snow,50,2012-11-01 06:47:00
10:53 PM,25.0,19.0,78,29.59,6.0,NE,5.8,-,0.01,Snow,Light Snow,40,2012-11-01 06:53:00
11:05 PM,24.8,19.4,80,29.59,2.5,NE,4.6,-,0.00,Snow,Light Snow,50,2012-11-01 07:05:00
11:13 PM,24.8,19.4,80,29.59,1.0,Calm,Calm,-,0.00,Snow,Light Snow,0,2012-11-01 07:13:00
11:28 PM,24.8,19.4,80,29.59,3.0,NW,3.5,-,0.00,Snow,Light Snow,320,2012-11-01 07:28:00
11:40 PM,24.8,19.4,80,29.59,9.0,WNW,3.5,-,0.00,,Overcast,300,2012-11-01 07:40:00
11:53 PM,25.0,19.9,81,29.60,10.0,Calm,Calm,-,0.01,,Overcast,0,2012-11-01 07:53:00